Miramar MCAS, CA

8:46 AM PDT on March 30, 2017 (GMT -0700)
Miramar Marine Corps Air Station-Mitscher

Weather History for KNKX - February, 2013

Change the Weather History Date:

Saturday, February 2, 2013

  Actual Average Record
Temperature  
Mean Temperature 63 °F -  
Max Temperature 78 °F 64 °F 81 °F (2000)
Min Temperature 48 °F 44 °F 39 °F (1999)
Degree Days  
Heating Degree Days 2    
Growing Degree Days 13 (Base 50)    
Moisture  
Dew Point 43 °F    
Average Humidity 53    
Maximum Humidity 81    
Minimum Humidity 22    
Precipitation  
Precipitation 0.01 in - - ()
Sea Level Pressure  
Sea Level Pressure 30.13 in    
Wind  
Wind Speed 5 mph (NNE)    
Max Wind Speed 8 mph    
Max Gust Speed -    
Visibility 10 miles    
Events Rain    
Averages and records for this station are not official NWS values.
T = Trace of Precipitation, MM = Missing Value Source: NWS Daily Summary

Daily Weather History Graph

Daily Weather History Graph

Search for Another Location

Airport or City:

Trip Planner

Search our weather history database for the weather conditions in past years. The results will help you decide how hot, cold, wet, or windy it might be!

Date:

Astronomy

Feb. 02, 2013 Rise Set
Actual Time 6:42 AM PST 5:22 PM PST
Civil Twilight 6:16 AM PST 5:48 PM PST
Nautical Twilight 5:47 AM PST 6:17 PM PST
Astronomical Twilight 5:18 AM PST 6:46 PM PST
Moon No Moon Rise 10:21 AM PST (2/2)
Length of Visible Light 11h 31m
Length of Day
10h 39m
Waning Gibbous, 58% of the Moon is Illuminated
Feb 2
Waning Gibbous
Feb 3
Last Quarter
Feb 9
New
Feb 17
First Quarter
Feb 25
Full

Hourly Weather History & Observations

Time (PST) Temp. Dew Point Humidity Pressure Visibility Wind Dir Wind Speed Gust Speed Precip Events Conditions
12:55 AM 55.9 °F 42.1 °F 60% 30.14 in 10.0 mi East 6.9 mph - N/A   Partly Cloudy
1:55 AM 53.1 °F 41.0 °F 64% 30.14 in 10.0 mi Calm Calm - N/A   Partly Cloudy
2:55 AM 48.9 °F 41.0 °F 74% 30.14 in 10.0 mi East 5.8 mph - N/A   Mostly Cloudy
3:55 AM 51.1 °F 41.0 °F 68% 30.14 in 10.0 mi ENE 6.9 mph - N/A   Mostly Cloudy
4:55 AM 51.1 °F 41.0 °F 68% 30.14 in 10.0 mi ENE 8.1 mph - N/A   Mostly Cloudy
5:55 AM 51.1 °F 39.9 °F 66% 30.14 in 10.0 mi NE 5.8 mph - N/A   Mostly Cloudy
6:55 AM 51.1 °F 39.9 °F 66% 30.15 in 10.0 mi ENE 3.5 mph - N/A   Mostly Cloudy
7:55 AM 62.1 °F 42.1 °F 48% 30.16 in 10.0 mi ENE 4.6 mph - N/A   Mostly Cloudy
8:55 AM 69.1 °F 39.0 °F 33% 30.17 in 10.0 mi ENE 3.5 mph - N/A   Mostly Cloudy
9:55 AM 73.0 °F 35.1 °F 25% 30.17 in 10.0 mi Calm Calm - N/A   Mostly Cloudy
10:55 AM 75.0 °F 35.1 °F 23% 30.16 in 10.0 mi North 3.5 mph - N/A   Mostly Cloudy
11:55 AM 77.0 °F 37.9 °F 24% 30.13 in 10.0 mi WNW 4.6 mph - N/A   Mostly Cloudy
12:55 PM 78.1 °F 36.0 °F 22% 30.09 in 10.0 mi WNW 6.9 mph - N/A   Mostly Cloudy
1:55 PM 68.0 °F 43.0 °F 40% 30.09 in 10.0 mi NW 5.8 mph - N/A   Mostly Cloudy
2:55 PM 66.9 °F 44.1 °F 44% 30.09 in 10.0 mi NNW 3.5 mph - N/A   Overcast
3:55 PM 68.0 °F 44.1 °F 42% 30.09 in 10.0 mi North 4.6 mph - N/A   Overcast
4:55 PM 66.0 °F 46.0 °F 48% 30.11 in 10.0 mi West 4.6 mph - N/A   Overcast
5:55 PM 63.0 °F 44.1 °F 50% 30.12 in 10.0 mi North 8.1 mph - N/A   Overcast
6:55 PM 62.1 °F 48.0 °F 60% 30.14 in 10.0 mi NNW 5.8 mph - N/A   Overcast
7:55 PM 62.1 °F 48.0 °F 60% 30.15 in 10.0 mi Calm Calm - N/A   Overcast
8:55 PM 60.1 °F 48.0 °F 64% 30.14 in 10.0 mi Calm Calm - N/A   Overcast
9:55 PM 61.0 °F 48.0 °F 62% 30.13 in 10.0 mi Calm Calm - N/A   Overcast
10:55 PM 60.1 °F 52.0 °F 75% 30.12 in 10.0 mi Calm Calm - 0.01 in Rain Light Rain
11:55 PM 59.0 °F 53.1 °F 81% 30.12 in 10.0 mi North - - 0.00 in   Overcast